Time,TemperatureF,DewpointF,PressureIn,WindDirection,WindDirectionDegrees,WindSpeedMPH,WindSpeedGustMPH,Humidity,HourlyPrecipIn,Conditions,Clouds,dailyrainin,SolarRadiationWatts/m^2,SoftwareType,DateUTC
2013-12-02 00:03:00,55.0,27.7,29.58,East,90,8.9,12.5,35,0.00,,,0.00,11,,2013-12-01 23:03:00,
2013-12-02 00:08:00,55.0,27.7,29.58,SE,135,8.0,11.1,35,0.00,,,0.00,11,,2013-12-01 23:08:00,
2013-12-02 00:13:00,55.2,27.9,29.58,ESE,112,9.8,21.0,35,0.00,,,0.00,11,,2013-12-01 23:13:00,
2013-12-02 00:18:00,55.8,27.7,29.58,SE,135,7.1,10.2,34,0.00,,,0.00,11,,2013-12-01 23:18:00,
2013-12-02 00:23:00,56.1,28.0,29.58,SE,135,9.3,11.1,34,0.00,,,0.00,11,,2013-12-01 23:23:00,
2013-12-02 00:28:00,55.8,28.4,29.58,East,90,6.2,15.2,35,0.00,,,0.00,11,,2013-12-01 23:28:00,
2013-12-02 00:33:00,55.8,28.4,29.58,East,90,7.6,11.6,35,0.00,,,0.00,11,,2013-12-01 23:33:00,
2013-12-02 00:38:00,55.6,28.2,29.58,SE,135,8.9,12.0,35,0.00,,,0.00,11,,2013-12-01 23:38:00,
2013-12-02 00:43:00,55.6,28.2,29.58,NE,45,6.7,10.2,35,0.00,,,0.00,11,,2013-12-01 23:43:00,
2013-12-02 00:48:00,55.6,27.5,29.58,East,90,7.1,7.1,34,0.00,,,0.00,11,,2013-12-01 23:48:00,
2013-12-02 00:53:00,55.6,27.5,29.58,ESE,112,6.7,8.9,34,0.00,,,0.00,11,,2013-12-01 23:53:00,
2013-12-02 00:58:00,55.6,28.2,29.58,SE,135,6.7,9.8,35,0.00,,,0.00,11,,2013-12-01 23:58:00,
2013-12-02 01:03:00,55.6,28.2,29.58,SE,135,5.3,7.6,35,0.00,,,0.00,11,,2013-12-02 00:03:00,
2013-12-02 01:08:00,55.6,28.2,29.58,SE,135,7.6,12.5,35,0.00,,,0.00,11,,2013-12-02 00:08:00,
2013-12-02 01:13:00,55.6,28.9,29.61,East,90,4.0,5.3,36,0.00,,,0.00,11,,2013-12-02 00:13:00,
2013-12-02 01:18:00,55.4,28.8,29.61,East,90,4.9,9.8,36,0.00,,,0.00,11,,2013-12-02 00:18:00,
2013-12-02 01:23:00,55.6,28.2,29.58,SE,135,5.3,11.1,35,0.00,,,0.00,11,,2013-12-02 00:23:00,
2013-12-02 01:28:00,55.8,28.4,29.58,East,90,4.4,9.3,35,0.00,,,0.00,11,,2013-12-02 00:28:00,
2013-12-02 01:33:00,55.8,28.4,29.58,NE,45,7.6,9.3,35,0.00,,,0.00,11,,2013-12-02 00:33:00,
2013-12-02 01:38:00,55.8,28.4,29.58,East,90,5.3,9.3,35,0.00,,,0.00,11,,2013-12-02 00:38:00,
2013-12-02 01:43:00,55.8,28.4,29.58,SE,135,5.8,8.0,35,0.00,,,0.00,11,,2013-12-02 00:43:00,
2013-12-02 01:48:00,55.9,28.6,29.58,SW,225,3.5,6.7,35,0.00,,,0.00,11,,2013-12-02 00:48:00,
2013-12-02 01:53:00,55.9,28.6,29.61,SE,135,5.8,5.8,35,0.00,,,0.00,11,,2013-12-02 00:53:00,
2013-12-02 01:58:00,56.1,28.0,29.61,East,90,5.3,16.5,34,0.00,,,0.00,11,,2013-12-02 00:58:00,
2013-12-02 02:03:00,56.7,27.7,29.58,ESE,112,7.1,7.1,33,0.00,,,0.00,11,,2013-12-02 01:03:00,
2013-12-02 02:08:00,56.7,27.7,29.58,East,90,4.9,5.3,33,0.00,,,0.00,11,,2013-12-02 01:08:00,
2013-12-02 02:13:00,57.0,27.3,29.61,North,0,4.9,8.5,32,0.00,,,0.00,11,,2013-12-02 01:13:00,
2013-12-02 02:18:00,57.2,27.5,29.61,SE,135,6.7,10.2,32,0.00,,,0.00,11,,2013-12-02 01:18:00,
2013-12-02 02:23:00,57.2,27.5,29.61,East,90,6.7,10.2,32,0.00,,,0.00,11,,2013-12-02 01:23:00,
2013-12-02 02:28:00,57.2,27.5,29.61,SE,135,5.8,10.7,32,0.00,,,0.00,11,,2013-12-02 01:28:00,
2013-12-02 02:33:00,57.0,27.3,29.61,SE,135,5.8,5.8,32,0.00,,,0.00,11,,2013-12-02 01:33:00,
2013-12-02 02:38:00,57.2,27.5,29.61,SE,135,7.6,8.5,32,0.00,,,0.00,11,,2013-12-02 01:38:00,
2013-12-02 02:43:00,57.0,28.0,29.61,East,90,8.9,13.4,33,0.00,,,0.00,11,,2013-12-02 01:43:00,
2013-12-02 02:48:00,57.4,27.7,29.61,East,90,5.8,13.4,32,0.00,,,0.00,11,,2013-12-02 01:48:00,
2013-12-02 02:53:00,57.2,28.2,29.61,South,180,3.5,5.8,33,0.00,,,0.00,11,,2013-12-02 01:53:00,
2013-12-02 02:58:00,57.4,27.7,29.61,SE,135,3.5,4.0,32,0.00,,,0.00,11,,2013-12-02 01:58:00,
2013-12-02 03:03:00,57.6,27.9,29.61,SE,135,4.0,5.8,32,0.00,,,0.00,11,,2013-12-02 02:03:00,
2013-12-02 03:08:00,57.6,28.6,29.61,SE,135,7.1,7.1,33,0.00,,,0.00,11,,2013-12-02 02:08:00,
2013-12-02 03:13:00,57.9,28.0,29.61,SE,135,7.1,7.1,32,0.00,,,0.00,11,,2013-12-02 02:13:00,
2013-12-02 03:18:00,58.5,27.9,29.61,East,90,5.8,8.9,31,0.00,,,0.00,11,,2013-12-02 02:18:00,
2013-12-02 03:23:00,58.5,27.9,29.61,East,90,5.8,6.2,31,0.00,,,0.00,11,,2013-12-02 02:23:00,
2013-12-02 03:28:00,58.5,27.9,29.61,SE,135,8.0,12.0,31,0.00,,,0.00,11,,2013-12-02 02:28:00,
2013-12-02 03:33:00,57.7,27.1,29.61,SE,135,7.1,8.5,31,0.00,,,0.00,11,,2013-12-02 02:33:00,
2013-12-02 03:38:00,57.6,27.0,29.61,NE,45,5.8,9.3,31,0.00,,,0.00,11,,2013-12-02 02:38:00,
2013-12-02 03:43:00,57.4,27.7,29.61,SE,135,7.1,9.8,32,0.00,,,0.00,11,,2013-12-02 02:43:00,
2013-12-02 03:48:00,57.2,28.2,29.61,SE,135,8.0,9.8,33,0.00,,,0.00,11,,2013-12-02 02:48:00,
2013-12-02 03:53:00,57.4,27.7,29.61,SE,135,6.2,10.7,32,0.00,,,0.00,11,,2013-12-02 02:53:00,
2013-12-02 03:58:00,57.4,27.7,29.61,SE,135,4.0,5.3,32,0.00,,,0.00,11,,2013-12-02 02:58:00,
2013-12-02 04:03:00,57.2,28.2,29.61,East,90,3.5,6.7,33,0.00,,,0.00,11,,2013-12-02 03:03:00,
2013-12-02 04:08:00,57.0,28.0,29.61,East,90,5.3,5.3,33,0.00,,,0.00,11,,2013-12-02 03:08:00,
2013-12-02 04:13:00,56.8,27.9,29.61,SE,135,4.4,4.4,33,0.00,,,0.00,11,,2013-12-02 03:13:00,
2013-12-02 04:18:00,56.5,28.4,29.61,NE,45,4.9,4.9,34,0.00,,,0.00,11,,2013-12-02 03:18:00,
2013-12-02 04:23:00,56.3,28.2,29.64,NE,45,4.9,4.9,34,0.00,,,0.00,11,,2013-12-02 03:23:00,
2013-12-02 04:28:00,56.1,28.0,29.64,East,90,4.4,6.2,34,0.00,,,0.00,11,,2013-12-02 03:28:00,
2013-12-02 04:33:00,56.1,28.0,29.64,East,90,5.3,5.3,34,0.00,,,0.00,11,,2013-12-02 03:33:00,
2013-12-02 04:38:00,56.3,28.9,29.64,SE,135,3.5,5.8,35,0.00,,,0.00,11,,2013-12-02 03:38:00,
2013-12-02 04:43:00,56.3,28.9,29.64,East,90,1.3,2.2,35,0.00,,,0.00,11,,2013-12-02 03:43:00,
2013-12-02 04:48:00,55.6,28.2,29.64,SE,135,0.0,0.0,35,0.00,,,0.00,11,,2013-12-02 03:48:00,
2013-12-02 04:53:00,55.6,28.9,29.64,SE,135,0.8,2.2,36,0.00,,,0.00,11,,2013-12-02 03:53:00,
2013-12-02 04:58:00,55.2,28.6,29.64,SE,135,1.3,2.2,36,0.00,,,0.00,11,,2013-12-02 03:58:00,
2013-12-02 05:03:00,55.2,29.3,29.64,ESE,112,1.7,1.7,37,0.00,,,0.00,11,,2013-12-02 04:03:00,
2013-12-02 05:08:00,55.0,29.1,29.64,East,90,0.8,8.0,37,0.00,,,0.00,11,,2013-12-02 04:08:00,
2013-12-02 05:13:00,55.4,29.5,29.64,SE,135,2.6,4.4,37,0.00,,,0.00,11,,2013-12-02 04:13:00,
2013-12-02 05:18:00,55.4,29.5,29.64,SE,135,4.0,4.4,37,0.00,,,0.00,11,,2013-12-02 04:18:00,
2013-12-02 05:23:00,55.6,29.7,29.64,East,90,4.9,6.2,37,0.00,,,0.00,11,,2013-12-02 04:23:00,
2013-12-02 05:28:00,55.8,29.8,29.64,East,90,2.2,6.2,37,0.00,,,0.00,11,,2013-12-02 04:28:00,
2013-12-02 05:33:00,55.9,29.8,29.64,SE,135,5.8,8.5,37,0.00,,,0.00,11,,2013-12-02 04:33:00,
2013-12-02 05:38:00,55.9,29.8,29.64,SE,135,4.0,8.0,37,0.00,,,0.00,11,,2013-12-02 04:38:00,
2013-12-02 05:43:00,56.1,29.5,29.64,NE,45,2.6,4.0,36,0.00,,,0.00,11,,2013-12-02 04:43:00,
2013-12-02 05:48:00,56.1,29.5,29.64,East,90,4.4,8.5,36,0.00,,,0.00,11,,2013-12-02 04:48:00,
2013-12-02 05:53:00,56.1,29.5,29.64,SE,135,5.3,5.3,36,0.00,,,0.00,11,,2013-12-02 04:53:00,
2013-12-02 05:58:00,56.1,29.5,29.64,East,90,6.7,11.6,36,0.00,,,0.00,11,,2013-12-02 04:58:00,
2013-12-02 06:03:00,56.3,30.2,29.64,SE,135,5.8,11.1,37,0.00,,,0.00,11,,2013-12-02 05:03:00,
2013-12-02 06:08:00,56.3,30.2,29.64,SE,135,7.1,8.5,37,0.00,,,0.00,11,,2013-12-02 05:08:00,
2013-12-02 06:13:00,56.3,30.2,29.64,East,90,2.2,4.9,37,0.00,,,0.00,11,,2013-12-02 05:13:00,
2013-12-02 06:18:00,55.9,30.6,29.64,SW,225,2.2,3.1,38,0.00,,,0.00,11,,2013-12-02 05:18:00,
2013-12-02 06:23:00,55.9,30.6,29.64,SE,135,4.0,4.0,38,0.00,,,0.00,11,,2013-12-02 05:23:00,
2013-12-02 06:28:00,56.1,30.0,29.64,East,90,4.4,6.7,37,0.00,,,0.00,11,,2013-12-02 05:28:00,
2013-12-02 06:33:00,56.3,30.2,29.67,ESE,112,4.9,4.9,37,0.00,,,0.00,11,,2013-12-02 05:33:00,
2013-12-02 06:38:00,56.1,30.0,29.67,SE,135,4.0,4.0,37,0.00,,,0.00,11,,2013-12-02 05:38:00,
2013-12-02 06:43:00,56.1,30.0,29.67,SE,135,5.8,6.7,37,0.00,,,0.00,11,,2013-12-02 05:43:00,
2013-12-02 06:48:00,55.9,29.8,29.67,East,90,5.8,8.5,37,0.00,,,0.00,11,,2013-12-02 05:48:00,
2013-12-02 06:53:00,55.9,29.8,29.67,SE,135,4.0,4.4,37,0.00,,,0.00,11,,2013-12-02 05:53:00,
2013-12-02 06:58:00,55.8,29.8,29.67,ESE,112,4.9,7.6,37,0.00,,,0.00,11,,2013-12-02 05:58:00,
2013-12-02 07:03:00,55.8,29.8,29.67,SE,135,3.1,5.8,37,0.00,,,0.00,11,,2013-12-02 06:03:00,
2013-12-02 07:08:00,55.8,29.8,29.67,SE,135,3.5,3.5,37,0.00,,,0.00,11,,2013-12-02 06:08:00,
2013-12-02 07:13:00,55.8,30.4,29.67,East,90,2.2,3.5,38,0.00,,,0.00,11,,2013-12-02 06:13:00,
2013-12-02 07:18:00,55.8,30.4,29.67,SE,135,2.2,4.0,38,0.00,,,0.00,11,,2013-12-02 06:18:00,
2013-12-02 07:23:00,55.6,30.2,29.67,SE,135,2.2,4.4,38,0.00,,,0.00,11,,2013-12-02 06:23:00,
2013-12-02 07:28:00,55.4,30.0,29.67,SE,135,1.3,0.0,38,0.00,,,0.00,11,,2013-12-02 06:28:00,
2013-12-02 07:33:00,55.2,30.6,29.67,SSE,157,0.8,1.7,39,0.00,,,0.00,11,,2013-12-02 06:33:00,
2013-12-02 07:38:00,55.4,30.7,29.67,South,180,1.3,1.3,39,0.00,,,0.00,11,,2013-12-02 06:38:00,
2013-12-02 07:43:00,55.2,30.6,29.70,South,180,0.8,1.3,39,0.00,,,0.00,11,,2013-12-02 06:43:00,
2013-12-02 07:48:00,55.2,31.3,29.70,SW,225,1.3,2.6,40,0.00,,,0.00,11,,2013-12-02 06:48:00,
2013-12-02 07:53:00,55.2,31.3,29.70,South,180,0.8,0.8,40,0.00,,,0.00,11,,2013-12-02 06:53:00,
2013-12-02 07:58:00,54.5,31.1,29.70,South,180,0.8,2.2,41,0.00,,,0.00,11,,2013-12-02 06:58:00,
2013-12-02 08:03:00,55.8,31.6,29.70,South,180,1.3,1.3,40,0.00,,,0.00,11,,2013-12-02 07:03:00,
2013-12-02 08:08:00,56.3,30.9,29.70,South,180,0.8,2.2,38,0.00,,,0.00,11,,2013-12-02 07:08:00,
2013-12-02 08:13:00,57.7,30.2,29.70,South,180,0.0,0.0,35,0.00,,,0.00,11,,2013-12-02 07:13:00,
2013-12-02 08:18:00,57.0,28.8,29.70,South,180,0.8,1.3,34,0.00,,,0.00,11,,2013-12-02 07:18:00,
2013-12-02 08:23:00,57.7,29.5,29.70,South,180,0.0,0.4,34,0.00,,,0.00,11,,2013-12-02 07:23:00,
2013-12-02 08:28:00,57.4,29.1,29.70,South,180,0.8,0.8,34,0.00,,,0.00,11,,2013-12-02 07:28:00,
2013-12-02 08:33:00,58.5,30.7,29.73,South,180,0.0,0.0,35,0.00,,,0.00,11,,2013-12-02 07:33:00,
2013-12-02 08:38:00,59.9,32.0,29.73,South,180,0.0,0.0,35,0.00,,,0.00,11,,2013-12-02 07:38:00,
2013-12-02 08:43:00,60.4,31.8,29.73,South,180,0.0,0.0,34,0.00,,,0.00,11,,2013-12-02 07:43:00,
2013-12-02 08:48:00,59.2,29.3,29.73,South,180,0.0,0.0,32,0.00,,,0.00,11,,2013-12-02 07:48:00,
2013-12-02 08:53:00,58.8,28.9,29.73,South,180,0.0,0.0,32,0.00,,,0.00,11,,2013-12-02 07:53:00,
2013-12-02 08:58:00,58.6,29.5,29.73,South,180,0.8,1.3,33,0.00,,,0.00,11,,2013-12-02 07:58:00,
2013-12-02 09:03:00,59.2,31.5,29.73,SE,135,0.0,0.0,35,0.00,,,0.00,11,,2013-12-02 08:03:00,
2013-12-02 09:08:00,60.1,30.0,29.73,South,180,0.8,1.7,32,0.00,,,0.00,11,,2013-12-02 08:08:00,
2013-12-02 09:13:00,61.3,30.4,29.73,South,180,0.4,0.0,31,0.00,,,0.00,11,,2013-12-02 08:13:00,
2013-12-02 09:18:00,63.3,29.5,29.73,South,180,0.0,0.4,28,0.00,,,0.00,11,,2013-12-02 08:18:00,
2013-12-02 09:23:00,64.6,28.8,29.73,South,180,0.4,0.0,26,0.00,,,0.00,11,,2013-12-02 08:23:00,
2013-12-02 09:28:00,65.7,27.7,29.73,South,180,1.3,1.7,24,0.00,,,0.00,11,,2013-12-02 08:28:00,
2013-12-02 09:33:00,66.9,28.8,29.76,South,180,1.3,1.3,24,0.00,,,0.00,11,,2013-12-02 08:33:00,
2013-12-02 09:38:00,66.2,27.1,29.76,South,180,2.2,2.2,23,0.00,,,0.00,11,,2013-12-02 08:38:00,
2013-12-02 09:43:00,67.3,28.0,29.76,South,180,0.8,2.2,23,0.00,,,0.00,11,,2013-12-02 08:43:00,
2013-12-02 09:48:00,67.8,28.6,29.76,South,180,0.8,2.6,23,0.00,,,0.00,11,,2013-12-02 08:48:00,
2013-12-02 09:53:00,68.9,28.4,29.76,SSE,157,1.3,4.0,22,0.00,,,0.00,11,,2013-12-02 08:53:00,
2013-12-02 09:58:00,67.1,27.9,29.76,SE,135,2.2,2.2,23,0.00,,,0.00,11,,2013-12-02 08:58:00,
2013-12-02 10:03:00,66.9,27.9,29.76,South,180,2.2,2.6,23,0.00,,,0.00,11,,2013-12-02 09:03:00,
2013-12-02 10:08:00,67.3,28.0,29.76,South,180,2.2,2.6,23,0.00,,,0.00,11,,2013-12-02 09:08:00,
2013-12-02 10:13:00,69.4,28.8,29.76,South,180,0.8,0.8,22,0.00,,,0.00,11,,2013-12-02 09:13:00,
2013-12-02 10:18:00,69.1,28.6,29.76,SE,135,0.8,3.5,22,0.00,,,0.00,11,,2013-12-02 09:18:00,
2013-12-02 10:23:00,68.4,27.9,29.76,South,180,3.1,5.3,22,0.00,,,0.00,11,,2013-12-02 09:23:00,
2013-12-02 10:28:00,70.7,29.8,29.76,South,180,3.5,5.3,22,0.00,,,0.00,11,,2013-12-02 09:28:00,
2013-12-02 10:33:00,69.1,28.6,29.76,South,180,2.6,4.0,22,0.00,,,0.00,11,,2013-12-02 09:33:00,
2013-12-02 10:38:00,69.8,29.1,29.76,South,180,2.2,4.0,22,0.00,,,0.00,11,,2013-12-02 09:38:00,
2013-12-02 10:43:00,69.8,29.1,29.76,South,180,1.7,2.2,22,0.00,,,0.00,11,,2013-12-02 09:43:00,
2013-12-02 10:48:00,68.9,28.4,29.76,South,180,3.5,5.3,22,0.00,,,0.00,11,,2013-12-02 09:48:00,
2013-12-02 10:53:00,68.5,28.0,29.76,South,180,3.5,3.5,22,0.00,,,0.00,11,,2013-12-02 09:53:00,
2013-12-02 10:58:00,68.4,27.9,29.76,SW,225,3.5,3.5,22,0.00,,,0.00,11,,2013-12-02 09:58:00,
2013-12-02 11:03:00,70.2,29.5,29.76,SSE,157,4.0,4.0,22,0.00,,,0.00,11,,2013-12-02 10:03:00,
2013-12-02 11:08:00,71.2,30.4,29.76,South,180,3.1,3.1,22,0.00,,,0.00,11,,2013-12-02 10:08:00,
2013-12-02 11:13:00,71.2,30.4,29.76,SW,225,3.5,3.5,22,0.00,,,0.00,11,,2013-12-02 10:13:00,
2013-12-02 11:18:00,73.2,30.7,29.76,SE,135,3.1,3.1,21,0.00,,,0.00,11,,2013-12-02 10:18:00,
2013-12-02 11:23:00,74.8,32.2,29.76,SE,135,4.9,4.9,21,0.00,,,0.00,11,,2013-12-02 10:23:00,
2013-12-02 11:28:00,72.7,30.4,29.76,NE,45,3.1,5.3,21,0.00,,,0.00,11,,2013-12-02 10:28:00,
2013-12-02 11:33:00,73.4,30.9,29.76,SE,135,4.0,4.9,21,0.00,,,0.00,11,,2013-12-02 10:33:00,
2013-12-02 11:38:00,74.8,32.2,29.76,NE,45,6.2,7.6,21,0.00,,,0.00,11,,2013-12-02 10:38:00,
2013-12-02 11:43:00,76.6,32.4,29.76,SE,135,2.6,6.2,20,0.00,,,0.00,11,,2013-12-02 10:43:00,
2013-12-02 11:48:00,73.8,31.3,29.76,SE,135,4.0,6.2,21,0.00,,,0.00,11,,2013-12-02 10:48:00,
2013-12-02 11:53:00,76.5,32.4,29.76,SE,135,4.0,7.6,20,0.00,,,0.00,11,,2013-12-02 10:53:00,
2013-12-02 11:58:00,75.2,32.5,29.76,SSE,157,3.5,6.2,21,0.00,,,0.00,11,,2013-12-02 10:58:00,
2013-12-02 12:03:00,77.5,33.3,29.76,South,180,3.1,6.7,20,0.00,,,0.00,11,,2013-12-02 11:03:00,
2013-12-02 12:08:00,77.4,33.1,29.76,South,180,2.2,6.2,20,0.00,,,0.00,11,,2013-12-02 11:08:00,
2013-12-02 12:13:00,79.0,34.3,29.76,SE,135,3.5,4.4,20,0.00,,,0.00,11,,2013-12-02 11:13:00,
2013-12-02 12:18:00,75.7,31.6,29.76,SE,135,3.1,4.9,20,0.00,,,0.00,11,,2013-12-02 11:18:00,
2013-12-02 12:23:00,75.7,31.6,29.76,South,180,0.8,1.7,20,0.00,,,0.00,11,,2013-12-02 11:23:00,
2013-12-02 12:28:00,76.3,32.2,29.76,SE,135,2.2,6.7,20,0.00,,,0.00,11,,2013-12-02 11:28:00,
2013-12-02 12:33:00,75.4,31.5,29.76,SE,135,2.2,4.9,20,0.00,,,0.00,11,,2013-12-02 11:33:00,
2013-12-02 12:38:00,75.4,31.5,29.76,South,180,2.2,4.4,20,0.00,,,0.00,11,,2013-12-02 11:38:00,
2013-12-02 12:43:00,79.7,35.1,29.76,South,180,0.8,1.7,20,0.00,,,0.00,11,,2013-12-02 11:43:00,
2013-12-02 12:48:00,83.3,37.9,29.76,East,90,0.8,1.3,20,0.00,,,0.00,11,,2013-12-02 11:48:00,
2013-12-02 12:53:00,83.8,38.3,29.76,West,270,0.8,1.7,20,0.00,,,0.00,11,,2013-12-02 11:53:00,
2013-12-02 12:58:00,82.0,36.9,29.76,NW,315,2.6,3.5,20,0.00,,,0.00,11,,2013-12-02 11:58:00,
2013-12-02 13:03:00,77.4,33.1,29.76,SSW,202,0.8,1.3,20,0.00,,,0.00,11,,2013-12-02 12:03:00,
2013-12-02 13:08:00,78.8,34.2,29.76,WNW,292,1.7,4.4,20,0.00,,,0.00,11,,2013-12-02 12:08:00,
2013-12-02 13:13:00,75.0,32.4,29.76,NW,315,3.5,10.2,21,0.00,,,0.00,11,,2013-12-02 12:13:00,
2013-12-02 13:18:00,75.2,32.5,29.76,NW,315,7.1,7.6,21,0.00,,,0.00,11,,2013-12-02 12:18:00,
2013-12-02 13:23:00,71.2,31.5,29.76,NW,315,3.5,6.2,23,0.00,,,0.00,11,,2013-12-02 12:23:00,
2013-12-02 13:28:00,70.3,34.7,29.76,WNW,292,4.0,6.7,27,0.00,,,0.00,11,,2013-12-02 12:28:00,
2013-12-02 13:33:00,70.3,34.7,29.76,NNW,337,5.3,8.0,27,0.00,,,0.00,11,,2013-12-02 12:33:00,
2013-12-02 13:38:00,67.6,38.1,29.76,West,270,4.9,4.9,34,0.00,,,0.00,11,,2013-12-02 12:38:00,
2013-12-02 13:43:00,66.4,38.5,29.79,West,270,5.8,8.0,36,0.00,,,0.00,11,,2013-12-02 12:43:00,
2013-12-02 13:48:00,65.8,39.4,29.79,SW,225,4.0,9.8,38,0.00,,,0.00,11,,2013-12-02 12:48:00,
2013-12-02 13:53:00,65.5,39.7,29.79,SW,225,6.7,6.7,39,0.00,,,0.00,11,,2013-12-02 12:53:00,
2013-12-02 13:58:00,64.0,40.5,29.79,WSW,247,5.8,5.8,42,0.00,,,0.00,11,,2013-12-02 12:58:00,
2013-12-02 14:03:00,64.2,40.5,29.79,SW,225,5.3,5.3,42,0.00,,,0.00,11,,2013-12-02 13:03:00,
2013-12-02 14:08:00,64.2,40.5,29.79,SW,225,3.5,4.0,42,0.00,,,0.00,11,,2013-12-02 13:08:00,
2013-12-02 14:13:00,63.9,40.8,29.79,SW,225,4.0,5.8,43,0.00,,,0.00,11,,2013-12-02 13:13:00,
2013-12-02 14:18:00,63.1,40.8,29.79,NW,315,3.5,5.3,44,0.00,,,0.00,11,,2013-12-02 13:18:00,
2013-12-02 14:23:00,63.3,41.0,29.79,SW,225,3.1,3.1,44,0.00,,,0.00,11,,2013-12-02 13:23:00,
2013-12-02 14:28:00,62.4,41.2,29.79,West,270,4.4,5.3,46,0.00,,,0.00,11,,2013-12-02 13:28:00,
2013-12-02 14:33:00,62.4,41.2,29.79,West,270,4.4,5.8,46,0.00,,,0.00,11,,2013-12-02 13:33:00,
2013-12-02 14:38:00,62.6,41.4,29.79,West,270,0.8,0.8,46,0.00,,,0.00,11,,2013-12-02 13:38:00,
2013-12-02 14:43:00,63.0,41.7,29.82,SW,225,1.7,2.2,46,0.00,,,0.00,11,,2013-12-02 13:43:00,
2013-12-02 14:48:00,63.1,41.9,29.82,WNW,292,0.4,1.7,46,0.00,,,0.00,11,,2013-12-02 13:48:00,
2013-12-02 14:53:00,63.1,41.9,29.82,SW,225,2.2,2.2,46,0.00,,,0.00,11,,2013-12-02 13:53:00,
2013-12-02 14:58:00,63.1,41.9,29.82,SE,135,0.4,0.0,46,0.00,,,0.00,11,,2013-12-02 13:58:00,
2013-12-02 15:03:00,63.0,41.7,29.82,NW,315,2.6,3.5,46,0.00,,,0.00,11,,2013-12-02 14:03:00,
2013-12-02 15:08:00,62.6,41.4,29.82,NW,315,2.6,4.0,46,0.00,,,0.00,11,,2013-12-02 14:08:00,
2013-12-02 15:13:00,62.6,40.8,29.82,North,0,2.6,2.6,45,0.00,,,0.00,11,,2013-12-02 14:13:00,
2013-12-02 15:18:00,62.6,40.8,29.82,SW,225,0.4,1.3,45,0.00,,,0.00,11,,2013-12-02 14:18:00,
2013-12-02 15:23:00,62.6,40.8,29.82,SW,225,0.8,1.7,45,0.00,,,0.00,11,,2013-12-02 14:23:00,
2013-12-02 15:28:00,62.6,40.8,29.82,WNW,292,0.4,1.3,45,0.00,,,0.00,11,,2013-12-02 14:28:00,
2013-12-02 15:33:00,62.8,41.0,29.85,North,0,1.7,2.6,45,0.00,,,0.00,11,,2013-12-02 14:33:00,
2013-12-02 15:38:00,62.8,41.0,29.85,North,0,0.8,0.8,45,0.00,,,0.00,11,,2013-12-02 14:38:00,
2013-12-02 15:43:00,62.6,40.8,29.85,North,0,0.0,0.0,45,0.00,,,0.00,11,,2013-12-02 14:43:00,
2013-12-02 15:48:00,62.6,41.4,29.85,East,90,2.2,2.6,46,0.00,,,0.00,11,,2013-12-02 14:48:00,
2013-12-02 15:53:00,62.6,41.9,29.85,South,180,3.5,4.4,47,0.00,,,0.00,11,,2013-12-02 14:53:00,
2013-12-02 15:58:00,62.4,41.9,29.85,SE,135,1.3,2.6,47,0.00,,,0.00,11,,2013-12-02 14:58:00,
2013-12-02 16:03:00,62.4,41.9,29.85,East,90,0.8,2.6,47,0.00,,,0.00,11,,2013-12-02 15:03:00,
2013-12-02 16:08:00,62.2,41.7,29.85,East,90,4.0,4.9,47,0.00,,,0.00,11,,2013-12-02 15:08:00,
2013-12-02 16:13:00,62.1,41.0,29.85,East,90,3.5,5.8,46,0.00,,,0.00,11,,2013-12-02 15:13:00,
2013-12-02 16:18:00,61.9,39.6,29.85,SE,135,3.5,4.0,44,0.00,,,0.00,11,,2013-12-02 15:18:00,
2013-12-02 16:23:00,61.7,38.8,29.85,SE,135,3.1,5.3,43,0.00,,,0.00,11,,2013-12-02 15:23:00,
2013-12-02 16:28:00,61.3,36.1,29.85,East,90,2.2,3.5,39,0.00,,,0.00,11,,2013-12-02 15:28:00,
2013-12-02 16:33:00,61.2,35.2,29.88,SE,135,1.7,3.1,38,0.00,,,0.00,11,,2013-12-02 15:33:00,
2013-12-02 16:38:00,61.0,35.1,29.88,SE,135,2.2,2.6,38,0.00,,,0.00,11,,2013-12-02 15:38:00,
2013-12-02 16:43:00,60.8,35.6,29.88,East,90,2.6,3.5,39,0.00,,,0.00,11,,2013-12-02 15:43:00,
2013-12-02 16:48:00,60.4,35.2,29.88,SE,135,2.6,3.1,39,0.00,,,0.00,11,,2013-12-02 15:48:00,
2013-12-02 16:53:00,60.3,35.8,29.88,SE,135,3.1,3.1,40,0.00,,,0.00,11,,2013-12-02 15:53:00,
2013-12-02 16:58:00,60.3,35.8,29.88,NE,45,1.7,3.1,40,0.00,,,0.00,11,,2013-12-02 15:58:00,
2013-12-02 17:03:00,59.9,36.0,29.88,East,90,2.2,4.9,41,0.00,,,0.00,11,,2013-12-02 16:03:00,
2013-12-02 17:08:00,59.9,36.7,29.88,SE,135,3.5,5.8,42,0.00,,,0.00,11,,2013-12-02 16:08:00,
2013-12-02 17:13:00,59.7,36.5,29.88,East,90,4.0,5.3,42,0.00,,,0.00,11,,2013-12-02 16:13:00,
2013-12-02 17:18:00,59.7,37.0,29.88,SE,135,3.1,3.1,43,0.00,,,0.00,11,,2013-12-02 16:18:00,
2013-12-02 17:23:00,59.7,37.0,29.88,SE,135,1.7,3.5,43,0.00,,,0.00,11,,2013-12-02 16:23:00,
2013-12-02 17:28:00,59.7,42.4,29.88,SE,135,1.7,4.0,53,0.00,,,0.00,11,,2013-12-02 16:28:00,
2013-12-02 17:33:00,59.5,42.8,29.88,SE,135,1.7,4.4,54,0.00,,,0.00,11,,2013-12-02 16:33:00,
2013-12-02 17:38:00,59.4,43.2,29.88,SE,135,1.3,0.0,55,0.00,,,0.00,11,,2013-12-02 16:38:00,
2013-12-02 17:43:00,59.4,43.5,29.88,South,180,3.1,6.2,56,0.00,,,0.00,11,,2013-12-02 16:43:00,
2013-12-02 17:48:00,59.2,43.3,29.88,SW,225,4.9,6.2,56,0.00,,,0.00,11,,2013-12-02 16:48:00,
2013-12-02 17:53:00,59.2,43.0,29.91,SE,135,4.0,8.0,55,0.00,,,0.00,11,,2013-12-02 16:53:00,
2013-12-02 17:58:00,59.2,43.0,29.91,SE,135,2.2,8.0,55,0.00,,,0.00,11,,2013-12-02 16:58:00,
2013-12-02 18:03:00,59.0,42.8,29.91,ENE,67,4.0,4.4,55,0.00,,,0.00,11,,2013-12-02 17:03:00,
2013-12-02 18:08:00,58.6,41.0,29.91,SE,135,3.1,4.4,52,0.00,,,0.00,11,,2013-12-02 17:08:00,
2013-12-02 18:13:00,58.5,40.3,29.91,East,90,4.4,4.9,51,0.00,,,0.00,11,,2013-12-02 17:13:00,
2013-12-02 18:18:00,57.9,39.2,29.91,ESE,112,2.2,4.0,50,0.00,,,0.00,11,,2013-12-02 17:18:00,
2013-12-02 18:23:00,57.6,38.5,29.94,East,90,3.5,4.4,49,0.00,,,0.00,11,,2013-12-02 17:23:00,
2013-12-02 18:28:00,57.4,38.3,29.94,SE,135,4.9,6.2,49,0.00,,,0.00,11,,2013-12-02 17:28:00,
2013-12-02 18:33:00,57.0,38.5,29.91,SE,135,3.1,4.0,50,0.00,,,0.00,11,,2013-12-02 17:33:00,
2013-12-02 18:38:00,57.0,38.5,29.91,East,90,5.3,7.6,50,0.00,,,0.00,11,,2013-12-02 17:38:00,
2013-12-02 18:43:00,57.0,38.5,29.94,NE,45,4.0,5.8,50,0.00,,,0.00,11,,2013-12-02 17:43:00,
2013-12-02 18:48:00,56.5,36.3,29.94,SE,135,4.4,6.7,47,0.00,,,0.00,11,,2013-12-02 17:48:00,
2013-12-02 18:53:00,56.5,36.3,29.94,SE,135,4.0,4.9,47,0.00,,,0.00,11,,2013-12-02 17:53:00,
2013-12-02 18:58:00,56.3,35.6,29.94,SE,135,2.6,5.3,46,0.00,,,0.00,11,,2013-12-02 17:58:00,
2013-12-02 19:03:00,55.9,34.9,29.94,ESE,112,2.6,3.5,45,0.00,,,0.00,11,,2013-12-02 18:03:00,
2013-12-02 19:08:00,55.8,34.7,29.94,SE,135,3.1,3.1,45,0.00,,,0.00,11,,2013-12-02 18:08:00,
2013-12-02 19:13:00,55.8,34.7,29.94,SE,135,4.4,7.6,45,0.00,,,0.00,11,,2013-12-02 18:13:00,
2013-12-02 19:18:00,55.2,34.2,29.94,East,90,3.1,3.1,45,0.00,,,0.00,11,,2013-12-02 18:18:00,
2013-12-02 19:23:00,55.2,34.2,29.94,East,90,2.2,2.2,45,0.00,,,0.00,11,,2013-12-02 18:23:00,
2013-12-02 19:28:00,54.7,34.2,29.94,SE,135,2.6,4.9,46,0.00,,,0.00,11,,2013-12-02 18:28:00,
2013-12-02 19:33:00,54.7,33.6,29.94,East,90,4.9,4.9,45,0.00,,,0.00,11,,2013-12-02 18:33:00,
2013-12-02 19:38:00,54.7,33.6,29.94,East,90,3.1,3.1,45,0.00,,,0.00,11,,2013-12-02 18:38:00,
2013-12-02 19:43:00,54.3,33.3,29.94,SE,135,3.1,3.1,45,0.00,,,0.00,11,,2013-12-02 18:43:00,
2013-12-02 19:48:00,54.1,33.1,29.94,East,90,4.0,6.2,45,0.00,,,0.00,11,,2013-12-02 18:48:00,
2013-12-02 19:53:00,54.0,33.6,29.94,East,90,2.6,4.4,46,0.00,,,0.00,11,,2013-12-02 18:53:00,
2013-12-02 19:58:00,54.0,33.6,29.94,SE,135,3.1,5.3,46,0.00,,,0.00,11,,2013-12-02 18:58:00,
2013-12-02 20:03:00,54.0,33.6,29.94,SE,135,3.1,4.9,46,0.00,,,0.00,11,,2013-12-02 19:03:00,
2013-12-02 20:08:00,54.0,33.6,29.94,SE,135,2.6,2.6,46,0.00,,,0.00,11,,2013-12-02 19:08:00,
2013-12-02 20:13:00,54.0,33.6,29.97,NE,45,3.1,3.1,46,0.00,,,0.00,11,,2013-12-02 19:13:00,
2013-12-02 20:18:00,53.8,33.4,29.97,SE,135,2.6,4.4,46,0.00,,,0.00,11,,2013-12-02 19:18:00,
2013-12-02 20:23:00,53.8,32.9,29.94,SE,135,4.0,4.0,45,0.00,,,0.00,11,,2013-12-02 19:23:00,
2013-12-02 20:28:00,53.8,32.9,29.94,SE,135,3.5,5.3,45,0.00,,,0.00,11,,2013-12-02 19:28:00,
2013-12-02 20:33:00,53.8,32.9,29.97,SE,135,5.3,5.3,45,0.00,,,0.00,11,,2013-12-02 19:33:00,
2013-12-02 20:38:00,53.8,32.9,29.97,SE,135,2.6,4.4,45,0.00,,,0.00,11,,2013-12-02 19:38:00,
2013-12-02 20:48:00,53.8,32.9,29.97,SE,135,1.7,1.7,45,0.00,,,0.00,11,,2013-12-02 19:48:00,
2013-12-02 20:53:00,53.6,33.3,29.97,SE,135,0.8,1.7,46,0.00,,,0.00,11,,2013-12-02 19:53:00,
2013-12-02 20:58:00,53.8,32.9,29.97,SE,135,1.7,3.5,45,0.00,,,0.00,11,,2013-12-02 19:58:00,
2013-12-02 21:03:00,53.8,32.9,29.97,ESE,112,3.5,3.5,45,0.00,,,0.00,11,,2013-12-02 20:03:00,
2013-12-02 21:08:00,53.8,32.2,29.97,East,90,2.2,2.6,44,0.00,,,0.00,11,,2013-12-02 20:08:00,
2013-12-02 21:13:00,53.8,32.2,29.97,ESE,112,2.6,3.1,44,0.00,,,0.00,11,,2013-12-02 20:13:00,
2013-12-02 21:18:00,53.8,31.6,29.97,SE,135,2.2,4.0,43,0.00,,,0.00,11,,2013-12-02 20:18:00,
2013-12-02 21:23:00,54.0,31.8,29.97,East,90,2.6,4.0,43,0.00,,,0.00,11,,2013-12-02 20:23:00,
2013-12-02 21:28:00,53.8,31.6,29.97,East,90,1.3,1.3,43,0.00,,,0.00,11,,2013-12-02 20:28:00,
2013-12-02 21:33:00,53.6,32.2,29.97,NE,45,0.0,0.0,44,0.00,,,0.00,11,,2013-12-02 20:33:00,
2013-12-02 21:38:00,53.8,31.6,29.97,SE,135,0.8,1.7,43,0.00,,,0.00,11,,2013-12-02 20:38:00,
2013-12-02 21:43:00,53.6,32.2,29.97,East,90,0.0,2.2,44,0.00,,,0.00,11,,2013-12-02 20:43:00,
2013-12-02 21:48:00,53.8,31.1,29.97,ESE,112,2.2,2.6,42,0.00,,,0.00,11,,2013-12-02 20:48:00,
2013-12-02 21:53:00,53.8,31.1,29.97,East,90,2.2,4.0,42,0.00,,,0.00,11,,2013-12-02 20:53:00,
2013-12-02 21:58:00,54.0,30.7,29.97,East,90,2.2,3.5,41,0.00,,,0.00,11,,2013-12-02 20:58:00,
2013-12-02 22:03:00,54.0,30.7,29.97,SE,135,2.6,3.5,41,0.00,,,0.00,11,,2013-12-02 21:03:00,
2013-12-02 22:08:00,54.1,30.9,29.97,NE,45,3.1,3.1,41,0.00,,,0.00,11,,2013-12-02 21:08:00,
2013-12-02 22:13:00,54.1,30.9,29.97,East,90,1.3,1.3,41,0.00,,,0.00,11,,2013-12-02 21:13:00,
2013-12-02 22:18:00,54.1,30.2,29.97,East,90,3.1,3.1,40,0.00,,,0.00,11,,2013-12-02 21:18:00,
2013-12-02 22:23:00,54.1,30.2,29.97,East,90,2.6,4.4,40,0.00,,,0.00,11,,2013-12-02 21:23:00,
2013-12-02 22:28:00,54.1,29.7,29.97,SE,135,2.6,3.1,39,0.00,,,0.00,11,,2013-12-02 21:28:00,
2013-12-02 22:33:00,54.0,30.0,29.97,East,90,1.3,2.2,40,0.00,,,0.00,11,,2013-12-02 21:33:00,
2013-12-02 22:38:00,54.0,29.5,29.97,East,90,4.0,4.0,39,0.00,,,0.00,11,,2013-12-02 21:38:00,
2013-12-02 22:43:00,54.0,29.5,30.00,East,90,2.6,2.6,39,0.00,,,0.00,11,,2013-12-02 21:43:00,
2013-12-02 22:48:00,54.0,29.5,30.00,East,90,3.1,5.8,39,0.00,,,0.00,11,,2013-12-02 21:48:00,
2013-12-02 22:53:00,53.8,29.3,30.00,SE,135,2.6,2.6,39,0.00,,,0.00,11,,2013-12-02 21:53:00,
2013-12-02 22:58:00,53.8,29.3,30.00,East,90,4.9,4.9,39,0.00,,,0.00,11,,2013-12-02 21:58:00,
2013-12-02 23:03:00,53.6,29.1,30.00,East,90,2.6,3.5,39,0.00,,,0.00,11,,2013-12-02 22:03:00,
2013-12-02 23:08:00,53.6,29.7,30.00,SE,135,3.1,6.7,40,0.00,,,0.00,11,,2013-12-02 22:08:00,
2013-12-02 23:13:00,53.4,29.7,30.00,SE,135,2.6,3.5,40,0.00,,,0.00,11,,2013-12-02 22:13:00,
2013-12-02 23:18:00,53.2,29.5,30.00,East,90,2.6,2.6,40,0.00,,,0.00,11,,2013-12-02 22:18:00,
2013-12-02 23:23:00,53.2,29.5,30.00,East,90,3.5,4.0,40,0.00,,,0.00,11,,2013-12-02 22:23:00,
2013-12-02 23:28:00,53.1,28.6,30.00,East,90,1.7,4.0,39,0.00,,,0.00,11,,2013-12-02 22:28:00,
2013-12-02 23:33:00,52.9,28.4,30.00,ENE,67,4.4,4.4,39,0.00,,,0.00,11,,2013-12-02 22:33:00,
2013-12-02 23:38:00,53.1,28.6,30.00,SE,135,4.9,6.7,39,0.00,,,0.00,11,,2013-12-02 22:38:00,
2013-12-02 23:43:00,52.9,28.4,30.00,East,90,4.0,5.8,39,0.00,,,0.00,11,,2013-12-02 22:43:00,
2013-12-02 23:48:00,52.7,28.9,30.00,SE,135,3.5,4.0,40,0.00,,,0.00,11,,2013-12-02 22:48:00,
2013-12-02 23:53:00,52.5,28.8,30.00,East,90,4.4,9.3,40,0.00,,,0.00,11,,2013-12-02 22:53:00,
2013-12-02 23:58:00,52.7,29.5,30.00,SE,135,4.9,6.2,41,0.00,,,0.00,11,,2013-12-02 22:58:00,